Weather in Great Yarmouth

United Kingdom     52°36′16″N   1°43′20″E
temp.,
°C
wind,
m/s
gust,
m/s
humid.,
%
clouds,
%
prec.,
mm/h
press.,
hPa
HPBL,
m
13 june, sun
sun1301:00+11ssw33815 0.0 102746
04:00+10sw34915 0.0 102765
07:00+13wsw33850 0.0 1027172
10:00+17ssw33685 0.0 1028543
13:00+20sse44650 0.0 1027763
16:00+20sse44670 0.0 1025807
19:00+18s57812 0.0 1025229
22:00+14s47884 0.0 102491
14 june, mon
mon1401:00+14s47840 0.0 1023110
04:00+14ssw48869 0.0 1022118
07:00+16sw59800 0.0 1020212
10:00+20w57695 0.0 1021556
13:00+22w3469100 0.1 1019987
16:00+16ene4591100 0.2 1020142
19:00+15nne4790100 0.6 1021229
22:00+14nne4687100 0.1 1022224
15 june, tue
tue1501:00+14nnw357798 0.1 1022197
04:00+11nw469380 0.0 1022116
07:00+13n457889 0.0 1023295
10:00+15ne3368100 0.0 1023516
13:00+16e326770 0.0 1022722
16:00+15ese447139 0.0 1021362
19:00+15se447485 0.0 1020234
22:00+13sse457978 0.0 101973
16 june, wed
wed1601:00+12sse3480100 0.0 101854
04:00+12s34825 0.0 101751
07:00+15s34785 0.0 1016128
10:00+18sse45730 0.0 1015386
13:00+19sse55741 0.0 1015560
16:00+18se45761 0.0 1014386
19:00+17ese34800 0.0 1013130
22:00+15e45860 0.0 101368
17 june, thu
thu1701:00+15e46880 0.0 101181
04:00+15e46917 0.0 101086
07:00+16e3487100 0.0 1009101
10:00+18ese3588100 0.0 1008191
13:00+19s238593 0.1 1007200
16:00+22wsw568367 0.6 1008696
19:00+20wnw458459 0.8 1010447
22:00+15nw7109494 0.0 1011302